This is the latest recevied weather packets stored in our database for station/object W1TG-2. If no packets are shown the sender has not sent any weather packets the latest 1 day(s).
| Time | Temp. | Humidity | Pressure | Rain* | Wind** | Luminosity | Snow |
|---|---|---|---|---|---|---|---|
| 1778017684 | 22.22° C | 55% | 1003.8 hPa | 0 mm | 3.58 m/s, 191° | - | - |
| 1778017323 | 22.78° C | 55% | 1003.9 hPa | 0 mm | 3.13 m/s, 195° | - | - |
| 1778016964 | 22.22° C | 56% | 1003.8 hPa | 0 mm | 2.24 m/s, 183° | - | - |
| 1778016604 | 22.22° C | 56% | 1003.8 hPa | 0 mm | 2.24 m/s, 169° | - | - |
| 1778016244 | 22.22° C | 56% | 1003.7 hPa | 0 mm | 2.68 m/s, 171° | - | - |
| 1778015883 | 21.67° C | 57% | 1003.6 hPa | 0 mm | 2.24 m/s, 181° | - | - |
| 1778015524 | 21.67° C | 57% | 1003.5 hPa | 0 mm | 2.68 m/s, 165° | - | - |
| 1778015164 | 22.22° C | 55% | 1003.6 hPa | 0 mm | 3.13 m/s, 175° | - | - |
| 1778014803 | 22.22° C | 56% | 1003.5 hPa | 0 mm | 3.13 m/s, 179° | - | - |
| 1778014443 | 22.22° C | 55% | 1003.4 hPa | 0 mm | 3.13 m/s, 169° | - | - |
| 1778014084 | 22.78° C | 53% | 1003.3 hPa | 0 mm | 3.13 m/s, 162° | - | - |
| 1778013724 | 22.78° C | 55% | 1003.4 hPa | 0 mm | 3.13 m/s, 169° | - | - |
| 1778013363 | 22.78° C | 55% | 1003.3 hPa | 193.04 mm | 2.68 m/s, 179° | - | - |
| 1778013003 | 22.22° C | 54% | 1003.5 hPa | 193.04 mm | 2.68 m/s, 168° | - | - |
| 1778012644 | 22.78° C | 53% | 1003.6 hPa | 193.04 mm | 2.68 m/s, 169° | - | - |
| 1778012284 | 22.78° C | 53% | 1003.6 hPa | 193.04 mm | 2.24 m/s, 175° | - | - |
| 1778011927 | 22.78° C | 53% | 1003.6 hPa | 193.04 mm | 3.13 m/s, 163° | - | - |
| 1778011563 | 23.33° C | 52% | 1003.5 hPa | 193.04 mm | 3.13 m/s, 162° | - | - |
| 1778011204 | 23.33° C | 52% | 1003.7 hPa | 193.04 mm | 3.13 m/s, 162° | - | - |
| 1778010843 | 23.33° C | 52% | 1003.6 hPa | 193.04 mm | 3.58 m/s, 164° | - | - |
| 1778010484 | 23.89° C | 52% | 1003.6 hPa | 193.04 mm | 3.13 m/s, 161° | - | - |
* Rain latest hour (hover to see other rain measurements)
** Current wind speed in m/s (hover to see current wind gust speed)